Location: Laguna de la Cañada del Gallo
(40.3974°N, 5.2096°W)
Time: 06:39:17
(UTC+00:00)

Resurs 01 Rocket - Visible Passes

Search period start: 12 July 2025 00:00
Search period end: 22 July 2025 00:00
Orbit: 628 x 636 km, 97.7° (Epoch: 11 July)

Date Brightness Start Highest point End Pass type
(mag) Time Alt. Az. Time Alt. Az. Time Alt. Az.
12 Jul 3.6 20:28:54 10° SSW 20:32:40 28° W 20:36:28 10° NW visible
13 Jul 4.3 20:51:02 10° SW 20:53:52 17° W 20:56:43 10° NW visible
16 Jul 3.1 20:16:20 10° SSW 20:20:24 37° W 20:24:31 10° NNW visible
17 Jul 4.0 20:38:08 10° SW 20:41:34 22° W 20:45:02 10° NW visible
18 Jul 4.4 21:00:41 10° WSW 21:02:48 13° W 21:04:56 10° WNW visible
21 Jul 3.6 20:25:26 10° SSW 20:29:18 29° W 20:33:10 10° NW visible
